Time,TemperatureF,DewpointF,PressureIn,WindDirection,WindDirectionDegrees,WindSpeedMPH,WindSpeedGustMPH,Humidity,HourlyPrecipIn,Conditions,Clouds,dailyrainin,SoftwareType,DateUTC
2013-06-23 00:01:00,69.6,56.9,30.12,South,183,6.0,6.0,64,0.00,,,0.00,Wunderground v.1.15,2013-06-23 04:01:00,
2013-06-23 00:02:00,69.6,56.4,30.12,SSW,203,1.0,6.0,63,0.00,,,0.00,Wunderground v.1.15,2013-06-23 04:02:00,
2013-06-23 00:03:00,69.6,56.4,30.11,South,190,0.0,6.0,63,0.00,,,0.00,Wunderground v.1.15,2013-06-23 04:03:00,
2013-06-23 00:05:00,69.5,56.3,30.11,SSW,213,5.0,6.0,63,0.00,,,0.00,Wunderground v.1.15,2013-06-23 04:05:00,
2013-06-23 00:10:00,69.5,56.8,30.11,SW,234,2.0,2.0,64,0.00,,,0.00,Wunderground v.1.15,2013-06-23 04:10:00,
2013-06-23 00:15:00,69.5,56.8,30.11,SW,223,6.0,6.0,64,0.00,,,0.00,Wunderground v.1.15,2013-06-23 04:15:00,
2013-06-23 00:20:00,69.4,56.3,30.11,West,261,3.0,3.0,63,0.00,,,0.00,Wunderground v.1.15,2013-06-23 04:20:00,
2013-06-23 00:26:00,69.3,56.2,30.11,WNW,296,2.0,3.0,63,0.00,,,0.00,Wunderground v.1.15,2013-06-23 04:26:00,
2013-06-23 00:31:00,69.3,56.6,30.12,WSW,252,2.0,4.0,64,0.00,,,0.00,Wunderground v.1.15,2013-06-23 04:31:00,
2013-06-23 00:36:00,69.2,56.9,30.12,SSW,205,4.0,5.0,65,0.00,,,0.00,Wunderground v.1.15,2013-06-23 04:36:00,
2013-06-23 00:41:00,69.2,56.9,30.12,West,270,0.0,2.0,65,0.00,,,0.00,Wunderground v.1.15,2013-06-23 04:41:00,
2013-06-23 00:47:00,69.0,56.3,30.12,SW,223,2.0,8.0,64,0.00,,,0.00,Wunderground v.1.15,2013-06-23 04:47:00,
2013-06-23 00:52:00,69.0,56.7,30.12,SW,218,0.0,4.0,65,0.00,,,0.00,Wunderground v.1.15,2013-06-23 04:52:00,
2013-06-23 00:57:00,69.0,56.7,30.12,WSW,254,5.0,5.0,65,0.00,,,0.00,Wunderground v.1.15,2013-06-23 04:57:00,
2013-06-23 01:02:00,69.0,56.7,30.12,SW,220,6.0,6.0,65,0.00,,,0.00,Wunderground v.1.15,2013-06-23 05:02:00,
2013-06-23 01:08:00,69.0,56.7,30.12,WNW,291,4.0,6.0,65,0.00,,,0.00,Wunderground v.1.15,2013-06-23 05:08:00,
2013-06-23 01:13:00,68.9,56.6,30.11,SW,225,1.0,6.0,65,0.00,,,0.00,Wunderground v.1.15,2013-06-23 05:13:00,
2013-06-23 01:19:00,68.9,56.6,30.11,West,273,2.0,7.0,65,0.00,,,0.00,Wunderground v.1.15,2013-06-23 05:19:00,
2013-06-23 01:24:00,68.8,56.6,30.11,West,267,1.0,5.0,65,0.00,,,0.00,Wunderground v.1.15,2013-06-23 05:24:00,
2013-06-23 01:29:00,68.8,56.6,30.11,SW,233,0.0,5.0,65,0.00,,,0.00,Wunderground v.1.15,2013-06-23 05:29:00,
2013-06-23 01:34:00,68.8,56.6,30.11,SW,229,2.0,6.0,65,0.00,,,0.00,Wunderground v.1.15,2013-06-23 05:34:00,
2013-06-23 01:40:00,68.8,57.0,30.11,SW,234,2.0,2.0,66,0.00,,,0.00,Wunderground v.1.15,2013-06-23 05:40:00,
2013-06-23 01:45:00,68.7,56.9,30.11,WSW,239,5.0,5.0,66,0.00,,,0.00,Wunderground v.1.15,2013-06-23 05:45:00,
2013-06-23 01:50:00,68.7,56.5,30.12,WSW,244,1.0,3.0,65,0.00,,,0.00,Wunderground v.1.15,2013-06-23 05:50:00,
2013-06-23 01:55:00,68.7,56.9,30.11,WSW,246,0.0,7.0,66,0.00,,,0.00,Wunderground v.1.15,2013-06-23 05:55:00,
2013-06-23 02:01:00,68.6,56.8,30.11,WSW,242,5.0,5.0,66,0.00,,,0.00,Wunderground v.1.15,2013-06-23 06:01:00,
2013-06-23 02:06:00,68.6,56.8,30.11,WSW,244,0.0,6.0,66,0.00,,,0.00,Wunderground v.1.15,2013-06-23 06:06:00,
2013-06-23 02:11:00,68.6,56.8,30.11,NW,317,0.0,4.0,66,0.00,,,0.00,Wunderground v.1.15,2013-06-23 06:11:00,
2013-06-23 02:16:00,68.6,56.8,30.11,WSW,252,10.0,10.0,66,0.00,,,0.00,Wunderground v.1.15,2013-06-23 06:16:00,
2013-06-23 02:21:00,68.6,56.8,30.11,SW,223,0.0,8.0,66,0.00,,,0.00,Wunderground v.1.15,2013-06-23 06:21:00,
2013-06-23 02:26:00,68.6,56.8,30.11,WSW,256,0.0,8.0,66,0.00,,,0.00,Wunderground v.1.15,2013-06-23 06:26:00,
2013-06-23 02:31:00,68.6,57.2,30.11,WSW,254,1.0,2.0,67,0.00,,,0.00,Wunderground v.1.15,2013-06-23 06:31:00,
2013-06-23 02:36:00,68.5,56.7,30.11,WSW,252,0.0,10.0,66,0.00,,,0.00,Wunderground v.1.15,2013-06-23 06:36:00,
2013-06-23 02:41:00,68.5,57.1,30.10,South,184,3.0,8.0,67,0.00,,,0.00,Wunderground v.1.15,2013-06-23 06:41:00,
2013-06-23 02:46:00,68.5,57.9,30.10,South,169,1.0,8.0,69,0.00,,,0.00,Wunderground v.1.15,2013-06-23 06:46:00,
2013-06-23 02:51:00,68.5,57.9,30.09,WSW,257,2.0,5.0,69,0.00,,,0.00,Wunderground v.1.15,2013-06-23 06:51:00,
2013-06-23 02:56:00,68.4,58.2,30.09,West,275,0.0,5.0,70,0.00,,,0.00,Wunderground v.1.15,2013-06-23 06:56:00,
2013-06-23 03:01:00,68.3,57.7,30.09,WSW,254,1.0,4.0,69,0.00,,,0.00,Wunderground v.1.15,2013-06-23 07:01:00,
2013-06-23 03:06:00,68.1,57.9,30.09,SW,234,1.0,4.0,70,0.00,,,0.00,Wunderground v.1.15,2013-06-23 07:06:00,
2013-06-23 03:11:00,68.0,57.8,30.09,SW,236,0.0,1.0,70,0.00,,,0.00,Wunderground v.1.15,2013-06-23 07:11:00,
2013-06-23 03:16:00,67.9,57.8,30.09,SSW,207,0.0,6.0,70,0.00,,,0.00,Wunderground v.1.15,2013-06-23 07:16:00,
2013-06-23 03:21:00,67.9,58.1,30.09,WSW,246,0.0,2.0,71,0.00,,,0.00,Wunderground v.1.15,2013-06-23 07:21:00,
2013-06-23 03:26:00,67.8,58.1,30.09,WSW,246,1.0,2.0,71,0.00,,,0.00,Wunderground v.1.15,2013-06-23 07:26:00,
2013-06-23 03:31:00,67.7,58.0,30.09,WSW,246,0.0,1.0,71,0.00,,,0.00,Wunderground v.1.15,2013-06-23 07:31:00,
2013-06-23 03:36:00,67.7,58.0,30.09,WSW,246,0.0,2.0,71,0.00,,,0.00,Wunderground v.1.15,2013-06-23 07:36:00,
2013-06-23 03:41:00,67.7,58.0,30.08,SSW,196,1.0,3.0,71,0.00,,,0.00,Wunderground v.1.15,2013-06-23 07:41:00,
2013-06-23 03:46:00,67.8,58.1,30.08,WSW,241,0.0,4.0,71,0.00,,,0.00,Wunderground v.1.15,2013-06-23 07:46:00,
2013-06-23 03:51:00,67.7,58.0,30.08,SW,223,1.0,2.0,71,0.00,,,0.00,Wunderground v.1.15,2013-06-23 07:51:00,
2013-06-23 03:56:00,67.7,57.6,30.08,WSW,238,0.0,4.0,70,0.00,,,0.00,Wunderground v.1.15,2013-06-23 07:56:00,
2013-06-23 04:01:00,67.8,58.1,30.08,WSW,238,0.0,1.0,71,0.00,,,0.00,Wunderground v.1.15,2013-06-23 08:01:00,
2013-06-23 04:06:00,67.8,58.1,30.08,WNW,294,0.0,4.0,71,0.00,,,0.00,Wunderground v.1.15,2013-06-23 08:06:00,
2013-06-23 04:11:00,67.7,57.6,30.08,WNW,294,0.0,1.0,70,0.00,,,0.00,Wunderground v.1.15,2013-06-23 08:11:00,
2013-06-23 04:16:00,67.7,57.6,30.08,South,190,1.0,3.0,70,0.00,,,0.00,Wunderground v.1.15,2013-06-23 08:16:00,
2013-06-23 04:21:00,67.7,57.6,30.08,SSW,199,1.0,5.0,70,0.00,,,0.00,Wunderground v.1.15,2013-06-23 08:21:00,
2013-06-23 04:26:00,67.6,57.1,30.08,SW,218,1.0,5.0,69,0.00,,,0.00,Wunderground v.1.15,2013-06-23 08:26:00,
2013-06-23 04:32:00,67.6,57.1,30.08,SSW,210,0.0,3.0,69,0.00,,,0.00,Wunderground v.1.15,2013-06-23 08:32:00,
2013-06-23 04:37:00,67.6,57.1,30.08,SSW,202,0.0,3.0,69,0.00,,,0.00,Wunderground v.1.15,2013-06-23 08:37:00,
2013-06-23 04:42:00,67.5,57.0,30.08,SW,223,0.0,3.0,69,0.00,,,0.00,Wunderground v.1.15,2013-06-23 08:42:00,
2013-06-23 04:47:00,67.5,57.0,30.08,SW,222,0.0,3.0,69,0.00,,,0.00,Wunderground v.1.15,2013-06-23 08:47:00,
2013-06-23 04:52:00,67.4,57.3,30.08,SSW,199,4.0,4.0,70,0.00,,,0.00,Wunderground v.1.15,2013-06-23 08:52:00,
2013-06-23 04:57:00,67.4,56.9,30.08,WSW,241,2.0,5.0,69,0.00,,,0.00,Wunderground v.1.15,2013-06-23 08:57:00,
2013-06-23 05:02:00,67.4,57.3,30.09,WSW,253,1.0,2.0,70,0.00,,,0.00,Wunderground v.1.15,2013-06-23 09:02:00,
2013-06-23 05:07:00,67.3,56.8,30.09,SSW,199,5.0,6.0,69,0.00,,,0.00,Wunderground v.1.15,2013-06-23 09:07:00,
2013-06-23 05:12:00,67.4,57.3,30.08,West,261,2.0,3.0,70,0.00,,,0.00,Wunderground v.1.15,2013-06-23 09:12:00,
2013-06-23 05:17:00,67.3,56.8,30.09,WSW,250,1.0,4.0,69,0.00,,,0.00,Wunderground v.1.15,2013-06-23 09:17:00,
2013-06-23 05:22:00,67.2,57.1,30.09,SSW,196,2.0,3.0,70,0.00,,,0.00,Wunderground v.1.15,2013-06-23 09:22:00,
2013-06-23 05:27:00,67.2,57.1,30.08,SSW,211,0.0,4.0,70,0.00,,,0.00,Wunderground v.1.15,2013-06-23 09:27:00,
2013-06-23 05:32:00,67.1,56.6,30.08,SSW,196,3.0,4.0,69,0.00,,,0.00,Wunderground v.1.15,2013-06-23 09:32:00,
2013-06-23 05:37:00,67.1,57.0,30.08,SSW,197,0.0,4.0,70,0.00,,,0.00,Wunderground v.1.15,2013-06-23 09:37:00,
2013-06-23 05:42:00,67.1,56.6,30.08,SSW,203,0.0,4.0,69,0.00,,,0.00,Wunderground v.1.15,2013-06-23 09:42:00,
2013-06-23 05:47:00,67.1,57.0,30.08,SW,227,0.0,6.0,70,0.00,,,0.00,Wunderground v.1.15,2013-06-23 09:47:00,
2013-06-23 05:52:00,67.2,57.1,30.08,SW,232,1.0,4.0,70,0.00,,,0.00,Wunderground v.1.15,2013-06-23 09:52:00,
2013-06-23 05:57:00,67.2,57.1,30.08,SSW,203,7.0,7.0,70,0.00,,,0.00,Wunderground v.1.15,2013-06-23 09:57:00,
2013-06-23 06:02:00,67.2,57.1,30.08,SW,229,2.0,2.0,70,0.00,,,0.00,Wunderground v.1.15,2013-06-23 10:02:00,
2013-06-23 06:07:00,67.3,57.2,30.08,South,187,0.0,4.0,70,0.00,,,0.00,Wunderground v.1.15,2013-06-23 10:07:00,
2013-06-23 06:12:00,67.4,57.7,30.09,SSW,198,3.0,4.0,71,0.00,,,0.00,Wunderground v.1.15,2013-06-23 10:12:00,
2013-06-23 06:17:00,67.5,57.8,30.08,SSW,203,2.0,7.0,71,0.00,,,0.00,Wunderground v.1.15,2013-06-23 10:17:00,
2013-06-23 06:22:00,67.6,57.9,30.08,SW,232,2.0,4.0,71,0.00,,,0.00,Wunderground v.1.15,2013-06-23 10:22:00,
2013-06-23 06:27:00,67.7,58.0,30.09,West,261,3.0,4.0,71,0.00,,,0.00,Wunderground v.1.15,2013-06-23 10:27:00,
2013-06-23 06:32:00,67.9,58.1,30.09,SSW,195,0.0,6.0,71,0.00,,,0.00,Wunderground v.1.15,2013-06-23 10:32:00,
2013-06-23 06:37:00,68.0,58.2,30.09,WSW,246,1.0,6.0,71,0.00,,,0.00,Wunderground v.1.15,2013-06-23 10:37:00,
2013-06-23 06:42:00,68.1,58.3,30.09,SW,227,1.0,5.0,71,0.00,,,0.00,Wunderground v.1.15,2013-06-23 10:42:00,
2013-06-23 06:47:00,68.3,58.5,30.09,WSW,241,3.0,5.0,71,0.00,,,0.00,Wunderground v.1.15,2013-06-23 10:47:00,
2013-06-23 06:52:00,68.4,58.2,30.09,West,261,2.0,3.0,70,0.00,,,0.00,Wunderground v.1.15,2013-06-23 10:52:00,
2013-06-23 06:57:00,68.6,58.0,30.09,SSW,205,0.0,7.0,69,0.00,,,0.00,Wunderground v.1.15,2013-06-23 10:57:00,
2013-06-23 07:02:00,68.8,58.6,30.09,West,259,2.0,5.0,70,0.00,,,0.00,Wunderground v.1.15,2013-06-23 11:02:00,
2013-06-23 07:07:00,69.0,58.8,30.09,SSW,195,2.0,6.0,70,0.00,,,0.00,Wunderground v.1.15,2013-06-23 11:07:00,
2013-06-23 07:12:00,69.2,59.0,30.09,SSW,198,2.0,5.0,70,0.00,,,0.00,Wunderground v.1.15,2013-06-23 11:12:00,
2013-06-23 07:17:00,69.4,59.6,30.09,WSW,246,3.0,5.0,71,0.00,,,0.00,Wunderground v.1.15,2013-06-23 11:17:00,
2013-06-23 07:22:00,69.7,59.9,30.10,WNW,296,1.0,8.0,71,0.00,,,0.00,Wunderground v.1.15,2013-06-23 11:22:00,
2013-06-23 07:27:00,69.9,59.7,30.10,SW,227,1.0,8.0,70,0.00,,,0.00,Wunderground v.1.15,2013-06-23 11:27:00,
2013-06-23 07:32:00,70.1,59.9,30.10,SW,215,4.0,6.0,70,0.00,,,0.00,Wunderground v.1.15,2013-06-23 11:32:00,
2013-06-23 07:37:00,70.4,60.1,30.10,SSW,192,3.0,7.0,70,0.00,,,0.00,Wunderground v.1.15,2013-06-23 11:37:00,
2013-06-23 07:42:00,70.6,59.9,30.10,WSW,253,3.0,7.0,69,0.00,,,0.00,Wunderground v.1.15,2013-06-23 11:42:00,
2013-06-23 07:47:00,70.8,60.1,30.10,WSW,258,0.0,7.0,69,0.00,,,0.00,Wunderground v.1.15,2013-06-23 11:47:00,
2013-06-23 07:52:00,71.2,60.9,30.10,West,265,2.0,10.0,70,0.00,,,0.00,Wunderground v.1.15,2013-06-23 11:52:00,
2013-06-23 07:57:00,71.3,61.0,30.10,West,277,4.0,10.0,70,0.00,,,0.00,Wunderground v.1.15,2013-06-23 11:57:00,
2013-06-23 08:02:00,71.6,61.3,30.10,SSW,198,4.0,5.0,70,0.00,,,0.00,Wunderground v.1.15,2013-06-23 12:02:00,
2013-06-23 08:07:00,71.8,61.5,30.10,West,260,2.0,6.0,70,0.00,,,0.00,Wunderground v.1.15,2013-06-23 12:07:00,
2013-06-23 08:12:00,72.1,62.2,30.10,WSW,245,1.0,8.0,71,0.00,,,0.00,Wunderground v.1.15,2013-06-23 12:12:00,
2013-06-23 08:17:00,72.4,62.1,30.10,SW,219,0.0,8.0,70,0.00,,,0.00,Wunderground v.1.15,2013-06-23 12:17:00,
2013-06-23 08:22:00,72.6,61.8,30.09,SW,221,6.0,10.0,69,0.00,,,0.00,Wunderground v.1.15,2013-06-23 12:22:00,
2013-06-23 08:27:00,72.8,62.4,30.09,WSW,255,0.0,10.0,70,0.00,,,0.00,Wunderground v.1.15,2013-06-23 12:27:00,
2013-06-23 08:32:00,73.1,62.7,30.09,West,272,0.0,4.0,70,0.00,,,0.00,Wunderground v.1.15,2013-06-23 12:32:00,
2013-06-23 08:37:00,73.5,62.7,30.10,WSW,243,0.0,7.0,69,0.00,,,0.00,Wunderground v.1.15,2013-06-23 12:37:00,
2013-06-23 08:42:00,73.8,63.0,30.09,WSW,240,3.0,7.0,69,0.00,,,0.00,Wunderground v.1.15,2013-06-23 12:42:00,
2013-06-23 08:47:00,74.2,63.4,30.09,SSW,213,1.0,8.0,69,0.00,,,0.00,Wunderground v.1.15,2013-06-23 12:47:00,
2013-06-23 08:53:00,74.6,63.8,30.09,SSW,210,0.0,6.0,69,0.00,,,0.00,Wunderground v.1.15,2013-06-23 12:53:00,
2013-06-23 08:58:00,74.8,63.5,30.09,WSW,237,4.0,10.0,68,0.00,,,0.00,Wunderground v.1.15,2013-06-23 12:58:00,
2013-06-23 09:03:00,75.1,64.2,30.09,SSW,198,2.0,7.0,69,0.00,,,0.00,Wunderground v.1.15,2013-06-23 13:03:00,
2013-06-23 09:08:00,75.3,64.8,30.09,West,273,4.0,8.0,70,0.00,,,0.00,Wunderground v.1.15,2013-06-23 13:08:00,
2013-06-23 09:13:00,75.4,64.1,30.09,WSW,257,1.0,8.0,68,0.00,,,0.00,Wunderground v.1.15,2013-06-23 13:13:00,
2013-06-23 09:18:00,75.6,64.7,30.09,WSW,256,3.0,8.0,69,0.00,,,0.00,Wunderground v.1.15,2013-06-23 13:18:00,
2013-06-23 09:23:00,75.7,64.4,30.09,WSW,252,3.0,3.0,68,0.00,,,0.00,Wunderground v.1.15,2013-06-23 13:23:00,
2013-06-23 09:28:00,76.0,65.1,30.09,WNW,291,1.0,7.0,69,0.00,,,0.00,Wunderground v.1.15,2013-06-23 13:28:00,
2013-06-23 09:33:00,76.4,65.5,30.09,WNW,287,2.0,7.0,69,0.00,,,0.00,Wunderground v.1.15,2013-06-23 13:33:00,
2013-06-23 09:38:00,76.7,65.3,30.09,West,264,3.0,8.0,68,0.00,,,0.00,Wunderground v.1.15,2013-06-23 13:38:00,
2013-06-23 09:43:00,76.9,64.7,30.09,WSW,251,3.0,6.0,66,0.00,,,0.00,Wunderground v.1.15,2013-06-23 13:43:00,
2013-06-23 09:48:00,77.1,65.3,30.08,SSW,201,4.0,8.0,67,0.00,,,0.00,Wunderground v.1.15,2013-06-23 13:48:00,
2013-06-23 09:53:00,77.3,65.5,30.08,West,281,3.0,9.0,67,0.00,,,0.00,Wunderground v.1.15,2013-06-23 13:53:00,
2013-06-23 09:58:00,77.6,66.2,30.08,WNW,286,1.0,9.0,68,0.00,,,0.00,Wunderground v.1.15,2013-06-23 13:58:00,
2013-06-23 10:03:00,77.9,66.1,30.08,SSW,203,3.0,7.0,67,0.00,,,0.00,Wunderground v.1.15,2013-06-23 14:03:00,
2013-06-23 10:08:00,78.1,66.2,30.08,SW,225,3.0,7.0,67,0.00,,,0.00,Wunderground v.1.15,2013-06-23 14:08:00,
2013-06-23 10:13:00,78.2,65.9,30.07,SW,232,3.0,6.0,66,0.00,,,0.00,Wunderground v.1.15,2013-06-23 14:13:00,
2013-06-23 10:18:00,78.4,66.1,30.07,WSW,243,1.0,6.0,66,0.00,,,0.00,Wunderground v.1.15,2013-06-23 14:18:00,
2013-06-23 10:23:00,78.7,66.4,30.07,SSW,202,2.0,7.0,66,0.00,,,0.00,Wunderground v.1.15,2013-06-23 14:23:00,
2013-06-23 10:28:00,78.8,66.5,30.07,SW,215,4.0,10.0,66,0.00,,,0.00,Wunderground v.1.15,2013-06-23 14:28:00,
2013-06-23 10:33:00,79.1,66.3,30.07,SSW,200,3.0,6.0,65,0.00,,,0.00,Wunderground v.1.15,2013-06-23 14:33:00,
2013-06-23 10:38:00,79.4,67.5,30.07,WNW,282,4.0,6.0,67,0.00,,,0.00,Wunderground v.1.15,2013-06-23 14:38:00,
2013-06-23 10:43:00,79.7,67.8,30.07,SW,236,1.0,7.0,67,0.00,,,0.00,Wunderground v.1.15,2013-06-23 14:43:00,
2013-06-23 10:48:00,79.9,66.6,30.07,SSW,203,8.0,8.0,64,0.00,,,0.00,Wunderground v.1.15,2013-06-23 14:48:00,
2013-06-23 10:53:00,80.2,67.8,30.07,SSW,209,1.0,8.0,66,0.00,,,0.00,Wunderground v.1.15,2013-06-23 14:53:00,
2013-06-23 10:58:00,80.5,67.6,30.07,SW,230,4.0,8.0,65,0.00,,,0.00,Wunderground v.1.15,2013-06-23 14:58:00,
2013-06-23 11:03:00,80.8,67.5,30.06,South,186,1.0,7.0,64,0.00,,,0.00,Wunderground v.1.15,2013-06-23 15:03:00,
2013-06-23 11:08:00,81.2,70.1,30.06,WNW,287,4.0,9.0,69,0.00,,,0.00,Wunderground v.1.15,2013-06-23 15:08:00,
2013-06-23 11:13:00,81.5,69.0,30.06,SSW,209,2.0,6.0,66,0.00,,,0.00,Wunderground v.1.15,2013-06-23 15:13:00,
2013-06-23 11:18:00,81.6,68.7,30.06,SSW,213,3.0,6.0,65,0.00,,,0.00,Wunderground v.1.15,2013-06-23 15:18:00,
2013-06-23 11:23:00,81.8,69.3,30.06,SSW,201,7.0,7.0,66,0.00,,,0.00,Wunderground v.1.15,2013-06-23 15:23:00,
2013-06-23 11:28:00,82.0,68.2,30.06,SSE,165,5.0,9.0,63,0.00,,,0.00,Wunderground v.1.15,2013-06-23 15:28:00,
2013-06-23 11:34:00,82.5,69.1,30.06,SSW,200,1.0,7.0,64,0.00,,,0.00,Wunderground v.1.15,2013-06-23 15:34:00,
2013-06-23 11:39:00,82.8,68.4,30.06,South,181,2.0,9.0,62,0.00,,,0.00,Wunderground v.1.15,2013-06-23 15:39:00,
2013-06-23 11:44:00,83.0,69.6,30.06,WSW,242,5.0,11.0,64,0.00,,,0.00,Wunderground v.1.15,2013-06-23 15:44:00,
2013-06-23 11:49:00,83.1,69.2,30.06,West,267,3.0,11.0,63,0.00,,,0.00,Wunderground v.1.15,2013-06-23 15:49:00,
2013-06-23 11:54:00,83.2,69.3,30.06,South,190,2.0,8.0,63,0.00,,,0.00,Wunderground v.1.15,2013-06-23 15:54:00,
2013-06-23 11:59:00,83.4,69.9,30.06,SW,225,4.0,11.0,64,0.00,,,0.00,Wunderground v.1.15,2013-06-23 15:59:00,
2013-06-23 12:05:00,83.8,70.8,30.05,NW,310,5.0,9.0,65,0.00,,,0.00,Wunderground v.1.15,2013-06-23 16:05:00,
2013-06-23 12:10:00,83.9,70.9,30.05,WSW,249,0.0,4.0,65,0.00,,,0.00,Wunderground v.1.15,2013-06-23 16:10:00,
2013-06-23 12:15:00,84.0,69.6,30.05,SSW,192,6.0,9.0,62,0.00,,,0.00,Wunderground v.1.15,2013-06-23 16:15:00,
2013-06-23 12:20:00,84.1,69.7,30.05,SSW,205,0.0,4.0,62,0.00,,,0.00,Wunderground v.1.15,2013-06-23 16:20:00,
2013-06-23 12:25:00,84.4,71.3,30.05,SW,224,1.0,6.0,65,0.00,,,0.00,Wunderground v.1.15,2013-06-23 16:25:00,
2013-06-23 12:30:00,84.4,70.9,30.05,WSW,254,4.0,7.0,64,0.00,,,0.00,Wunderground v.1.15,2013-06-23 16:30:00,
2013-06-23 12:36:00,84.4,70.4,30.04,SSW,209,0.0,7.0,63,0.00,,,0.00,Wunderground v.1.15,2013-06-23 16:36:00,
2013-06-23 12:41:00,84.5,70.0,30.04,South,180,8.0,8.0,62,0.00,,,0.00,Wunderground v.1.15,2013-06-23 16:41:00,
2013-06-23 12:46:00,84.8,70.3,30.04,SSW,213,2.0,10.0,62,0.00,,,0.00,Wunderground v.1.15,2013-06-23 16:46:00,
2013-06-23 12:51:00,85.2,71.2,30.04,WSW,239,1.0,7.0,63,0.00,,,0.00,Wunderground v.1.15,2013-06-23 16:51:00,
2013-06-23 12:56:00,85.2,71.2,30.03,WSW,255,6.0,7.0,63,0.00,,,0.00,Wunderground v.1.15,2013-06-23 16:56:00,
2013-06-23 12:57:00,85.2,70.7,30.03,WSW,239,1.0,8.0,62,0.00,,,0.00,Wunderground v.1.15,2013-06-23 16:57:00,
2013-06-23 12:58:00,85.2,70.7,30.03,WSW,242,2.0,10.0,62,0.00,,,0.00,Wunderground v.1.15,2013-06-23 16:58:00,
2013-06-23 13:03:00,85.3,71.3,30.03,WSW,246,3.0,4.0,63,0.00,,,0.00,Wunderground v.1.15,2013-06-23 17:03:00,
2013-06-23 13:08:00,85.4,71.4,30.03,WSW,241,4.0,7.0,63,0.00,,,0.00,Wunderground v.1.15,2013-06-23 17:08:00,
2013-06-23 13:13:00,85.4,70.9,30.03,South,189,4.0,8.0,62,0.00,,,0.00,Wunderground v.1.15,2013-06-23 17:13:00,
2013-06-23 13:18:00,85.4,71.4,30.02,WSW,256,5.0,12.0,63,0.00,,,0.00,Wunderground v.1.15,2013-06-23 17:18:00,
2013-06-23 13:23:00,85.4,71.4,30.02,WNW,284,4.0,11.0,63,0.00,,,0.00,Wunderground v.1.15,2013-06-23 17:23:00,
2013-06-23 13:28:00,85.6,70.6,30.02,SSW,205,8.0,12.0,61,0.00,,,0.00,Wunderground v.1.15,2013-06-23 17:28:00,
2013-06-23 13:33:00,85.9,70.9,30.02,WSW,249,9.0,11.0,61,0.00,,,0.00,Wunderground v.1.15,2013-06-23 17:33:00,
2013-06-23 13:38:00,86.1,71.1,30.02,West,269,7.0,12.0,61,0.00,,,0.00,Wunderground v.1.15,2013-06-23 17:38:00,
2013-06-23 13:43:00,86.2,71.2,30.01,SW,226,4.0,8.0,61,0.00,,,0.00,Wunderground v.1.15,2013-06-23 17:43:00,
2013-06-23 13:48:00,86.4,71.8,30.01,WSW,257,10.0,11.0,62,0.00,,,0.00,Wunderground v.1.15,2013-06-23 17:48:00,
2013-06-23 13:53:00,86.5,71.9,30.01,SSW,202,6.0,15.0,62,0.00,,,0.00,Wunderground v.1.15,2013-06-23 17:53:00,
2013-06-23 13:58:00,86.5,71.9,30.01,SW,219,9.0,15.0,62,0.00,,,0.00,Wunderground v.1.15,2013-06-23 17:58:00,
2013-06-23 14:03:00,86.6,72.5,30.01,West,277,5.0,15.0,63,0.00,,,0.00,Wunderground v.1.15,2013-06-23 18:03:00,
2013-06-23 14:08:00,86.8,72.7,30.00,SW,217,4.0,15.0,63,0.00,,,0.00,Wunderground v.1.15,2013-06-23 18:08:00,
2013-06-23 14:13:00,86.9,71.8,30.00,WNW,292,5.0,14.0,61,0.00,,,0.00,Wunderground v.1.15,2013-06-23 18:13:00,
2013-06-23 14:18:00,86.9,71.8,30.00,NW,312,4.0,14.0,61,0.00,,,0.00,Wunderground v.1.15,2013-06-23 18:18:00,
2013-06-23 14:23:00,87.0,71.9,30.00,SSW,192,4.0,10.0,61,0.00,,,0.00,Wunderground v.1.15,2013-06-23 18:23:00,
2013-06-23 14:28:00,87.1,72.0,30.00,South,180,11.0,13.0,61,0.00,,,0.00,Wunderground v.1.15,2013-06-23 18:28:00,
2013-06-23 14:33:00,87.1,71.0,30.00,SSW,204,7.0,15.0,59,0.00,,,0.00,Wunderground v.1.15,2013-06-23 18:33:00,
2013-06-23 14:38:00,87.2,72.1,29.99,WSW,251,5.0,18.0,61,0.00,,,0.00,Wunderground v.1.15,2013-06-23 18:38:00,
2013-06-23 14:43:00,87.2,71.6,29.99,SW,233,5.0,14.0,60,0.00,,,0.00,Wunderground v.1.15,2013-06-23 18:43:00,
2013-06-23 14:48:00,87.1,72.0,29.99,WSW,256,5.0,14.0,61,0.00,,,0.00,Wunderground v.1.15,2013-06-23 18:48:00,
2013-06-23 14:53:00,87.0,71.4,29.99,SSW,213,3.0,12.0,60,0.00,,,0.00,Wunderground v.1.15,2013-06-23 18:53:00,
2013-06-23 14:58:00,87.1,72.5,29.99,SW,236,2.0,12.0,62,0.00,,,0.00,Wunderground v.1.15,2013-06-23 18:58:00,
2013-06-23 15:03:00,87.0,72.4,29.99,North,360,3.0,17.0,62,0.00,,,0.00,Wunderground v.1.15,2013-06-23 19:03:00,
2013-06-23 15:08:00,86.8,71.2,29.99,SW,235,2.0,17.0,60,0.00,,,0.00,Wunderground v.1.15,2013-06-23 19:08:00,
2013-06-23 15:13:00,86.6,72.0,29.98,West,268,5.0,12.0,62,0.00,,,0.00,Wunderground v.1.15,2013-06-23 19:13:00,
2013-06-23 15:18:00,86.4,71.8,29.98,SSW,205,6.0,12.0,62,0.00,,,0.00,Wunderground v.1.15,2013-06-23 19:18:00,
2013-06-23 15:23:00,86.4,71.8,29.98,SSE,164,8.0,8.0,62,0.00,,,0.00,Wunderground v.1.15,2013-06-23 19:23:00,
2013-06-23 15:28:00,86.4,71.8,29.98,West,264,5.0,15.0,62,0.00,,,0.00,Wunderground v.1.15,2013-06-23 19:28:00,
2013-06-23 15:33:00,86.3,71.7,29.97,West,276,3.0,14.0,62,0.00,,,0.00,Wunderground v.1.15,2013-06-23 19:33:00,
2013-06-23 15:38:00,86.2,71.6,29.97,WSW,257,5.0,14.0,62,0.00,,,0.00,Wunderground v.1.15,2013-06-23 19:38:00,
2013-06-23 15:43:00,86.2,71.2,29.97,West,259,5.0,10.0,61,0.00,,,0.00,Wunderground v.1.15,2013-06-23 19:43:00,
2013-06-23 15:48:00,86.4,70.9,29.97,SSW,196,3.0,17.0,60,0.00,,,0.00,Wunderground v.1.15,2013-06-23 19:48:00,
2013-06-23 15:53:00,86.6,71.1,29.97,WSW,238,8.0,17.0,60,0.00,,,0.00,Wunderground v.1.15,2013-06-23 19:53:00,
2013-06-23 15:58:00,86.8,71.2,29.97,WSW,253,5.0,17.0,60,0.00,,,0.00,Wunderground v.1.15,2013-06-23 19:58:00,
2013-06-23 16:03:00,86.8,71.2,29.97,SW,219,6.0,10.0,60,0.00,,,0.00,Wunderground v.1.15,2013-06-23 20:03:00,
2013-06-23 16:08:00,86.8,72.2,29.96,West,281,4.0,16.0,62,0.00,,,0.00,Wunderground v.1.15,2013-06-23 20:08:00,
2013-06-23 16:13:00,86.9,70.8,29.96,South,173,4.0,15.0,59,0.00,,,0.00,Wunderground v.1.15,2013-06-23 20:13:00,
2013-06-23 16:18:00,86.9,70.3,29.96,WSW,257,13.0,16.0,58,0.00,,,0.00,Wunderground v.1.15,2013-06-23 20:18:00,
2013-06-23 16:23:00,86.9,70.8,29.97,SSW,192,14.0,14.0,59,0.00,,,0.00,Wunderground v.1.15,2013-06-23 20:23:00,
2013-06-23 16:28:00,86.9,70.3,29.96,South,179,12.0,15.0,58,0.00,,,0.00,Wunderground v.1.15,2013-06-23 20:28:00,
2013-06-23 16:33:00,86.9,70.3,29.96,South,183,2.0,12.0,58,0.00,,,0.00,Wunderground v.1.15,2013-06-23 20:33:00,
2013-06-23 16:38:00,86.9,69.8,29.96,South,178,6.0,21.0,57,0.00,,,0.00,Wunderground v.1.15,2013-06-23 20:38:00,
2013-06-23 16:43:00,86.9,70.3,29.96,SSW,194,6.0,10.0,58,0.00,,,0.00,Wunderground v.1.15,2013-06-23 20:43:00,
2013-06-23 16:48:00,86.8,69.7,29.96,South,170,10.0,12.0,57,0.00,,,0.00,Wunderground v.1.15,2013-06-23 20:48:00,
2013-06-23 16:53:00,86.7,70.2,29.96,SSW,198,6.0,11.0,58,0.00,,,0.00,Wunderground v.1.15,2013-06-23 20:53:00,
2013-06-23 16:58:00,86.7,70.2,29.96,SW,219,4.0,15.0,58,0.00,,,0.00,Wunderground v.1.15,2013-06-23 20:58:00,
2013-06-23 17:03:00,86.5,68.9,29.96,SW,236,5.0,13.0,56,0.00,,,0.00,Wunderground v.1.15,2013-06-23 21:03:00,
2013-06-23 17:08:00,86.4,68.8,29.96,SSW,211,8.0,19.0,56,0.00,,,0.00,Wunderground v.1.15,2013-06-23 21:08:00,
2013-06-23 17:13:00,86.3,69.8,29.95,SSW,207,6.0,9.0,58,0.00,,,0.00,Wunderground v.1.15,2013-06-23 21:13:00,
2013-06-23 17:18:00,86.3,69.3,29.95,WNW,288,8.0,17.0,57,0.00,,,0.00,Wunderground v.1.15,2013-06-23 21:18:00,
2013-06-23 17:23:00,86.2,68.7,29.95,West,259,5.0,12.0,56,0.00,,,0.00,Wunderground v.1.15,2013-06-23 21:23:00,
2013-06-23 17:28:00,86.1,68.6,29.95,SW,221,7.0,20.0,56,0.00,,,0.00,Wunderground v.1.15,2013-06-23 21:28:00,
2013-06-23 17:33:00,86.0,68.5,29.95,SSW,196,9.0,12.0,56,0.00,,,0.00,Wunderground v.1.15,2013-06-23 21:33:00,
2013-06-23 17:38:00,85.9,68.4,29.95,WSW,254,3.0,18.0,56,0.00,,,0.00,Wunderground v.1.15,2013-06-23 21:38:00,
2013-06-23 17:43:00,85.8,68.3,29.95,SSW,211,13.0,13.0,56,0.00,,,0.00,Wunderground v.1.15,2013-06-23 21:43:00,
2013-06-23 17:49:00,85.6,67.6,29.95,SW,217,6.0,20.0,55,0.00,,,0.00,Wunderground v.1.15,2013-06-23 21:49:00,
2013-06-23 17:54:00,85.3,67.3,29.95,SSW,209,2.0,14.0,55,0.00,,,0.00,Wunderground v.1.15,2013-06-23 21:54:00,
2013-06-23 17:59:00,85.2,67.7,29.95,SW,217,4.0,18.0,56,0.00,,,0.00,Wunderground v.1.15,2013-06-23 21:59:00,
2013-06-23 18:04:00,85.1,67.1,29.95,SW,222,3.0,18.0,55,0.00,,,0.00,Wunderground v.1.15,2013-06-23 22:04:00,
2013-06-23 18:09:00,85.1,67.6,29.95,WNW,288,4.0,18.0,56,0.00,,,0.00,Wunderground v.1.15,2013-06-23 22:09:00,
2013-06-23 18:14:00,84.9,68.0,29.95,West,261,5.0,14.0,57,0.00,,,0.00,Wunderground v.1.15,2013-06-23 22:14:00,
2013-06-23 18:19:00,84.8,67.4,29.95,SSE,158,7.0,14.0,56,0.00,,,0.00,Wunderground v.1.15,2013-06-23 22:19:00,
2013-06-23 18:24:00,84.7,67.3,29.96,SW,218,6.0,14.0,56,0.00,,,0.00,Wunderground v.1.15,2013-06-23 22:24:00,
2013-06-23 18:29:00,84.6,67.7,29.96,South,184,3.0,14.0,57,0.00,,,0.00,Wunderground v.1.15,2013-06-23 22:29:00,
2013-06-23 18:34:00,84.6,67.7,29.96,WSW,242,7.0,16.0,57,0.00,,,0.00,Wunderground v.1.15,2013-06-23 22:34:00,
2013-06-23 18:39:00,84.6,67.7,29.96,SSW,210,8.0,16.0,57,0.00,,,0.00,Wunderground v.1.15,2013-06-23 22:39:00,
2013-06-23 18:44:00,84.5,68.1,29.97,WSW,248,4.0,10.0,58,0.00,,,0.00,Wunderground v.1.15,2013-06-23 22:44:00,
2013-06-23 18:49:00,84.3,67.4,29.97,South,186,7.0,13.0,57,0.00,,,0.00,Wunderground v.1.15,2013-06-23 22:49:00,
2013-06-23 18:54:00,84.2,67.8,29.97,SSW,206,5.0,6.0,58,0.00,,,0.00,Wunderground v.1.15,2013-06-23 22:54:00,
2013-06-23 18:59:00,84.0,67.6,29.97,SSW,193,5.0,9.0,58,0.00,,,0.00,Wunderground v.1.15,2013-06-23 22:59:00,
2013-06-23 19:04:00,83.9,68.0,29.97,SSW,194,5.0,9.0,59,0.00,,,0.00,Wunderground v.1.15,2013-06-23 23:04:00,
2013-06-23 19:09:00,83.8,67.9,29.97,SSW,211,3.0,18.0,59,0.00,,,0.00,Wunderground v.1.15,2013-06-23 23:09:00,
2013-06-23 19:14:00,83.6,68.2,29.97,SW,233,1.0,11.0,60,0.00,,,0.00,Wunderground v.1.15,2013-06-23 23:14:00,
2013-06-23 19:19:00,83.4,67.6,29.97,SSW,193,9.0,11.0,59,0.00,,,0.00,Wunderground v.1.15,2013-06-23 23:19:00,
2013-06-23 19:24:00,83.2,67.9,29.96,West,263,1.0,11.0,60,0.00,,,0.00,Wunderground v.1.15,2013-06-23 23:24:00,
2013-06-23 19:29:00,83.0,67.2,29.96,WSW,247,7.0,23.0,59,0.00,,,0.00,Wunderground v.1.15,2013-06-23 23:29:00,
2013-06-23 19:34:00,82.8,67.0,29.96,WSW,255,6.0,13.0,59,0.00,,,0.00,Wunderground v.1.15,2013-06-23 23:34:00,
2013-06-23 19:39:00,82.6,66.8,29.96,South,188,6.0,13.0,59,0.00,,,0.00,Wunderground v.1.15,2013-06-23 23:39:00,
2013-06-23 19:44:00,82.5,67.2,29.96,SW,223,2.0,14.0,60,0.00,,,0.00,Wunderground v.1.15,2013-06-23 23:44:00,
2013-06-23 19:49:00,82.3,67.0,29.96,West,269,2.0,14.0,60,0.00,,,0.00,Wunderground v.1.15,2013-06-23 23:49:00,
2013-06-23 19:55:00,82.1,66.8,29.97,WNW,284,4.0,15.0,60,0.00,,,0.00,Wunderground v.1.15,2013-06-23 23:55:00,
2013-06-23 20:00:00,81.8,67.0,29.97,WSW,257,5.0,5.0,61,0.00,,,0.00,Wunderground v.1.15,2013-06-24 00:00:00,
2013-06-23 20:05:00,81.6,66.8,29.96,WSW,245,1.0,12.0,61,0.00,,,0.00,Wunderground v.1.15,2013-06-24 00:05:00,
2013-06-23 20:10:00,81.4,66.7,29.97,NW,311,4.0,7.0,61,0.00,,,0.00,Wunderground v.1.15,2013-06-24 00:10:00,
2013-06-23 20:15:00,81.2,67.4,29.97,SSW,197,3.0,9.0,63,0.00,,,0.00,Wunderground v.1.15,2013-06-24 00:15:00,
2013-06-23 20:20:00,81.1,67.3,29.97,South,188,1.0,3.0,63,0.00,,,0.00,Wunderground v.1.15,2013-06-24 00:20:00,
2013-06-23 20:25:00,81.0,67.2,29.97,SSW,201,3.0,9.0,63,0.00,,,0.00,Wunderground v.1.15,2013-06-24 00:25:00,
2013-06-23 20:30:00,80.8,67.5,29.97,SW,219,5.0,9.0,64,0.00,,,0.00,Wunderground v.1.15,2013-06-24 00:30:00,
2013-06-23 20:35:00,80.6,67.3,29.97,South,178,8.0,14.0,64,0.00,,,0.00,Wunderground v.1.15,2013-06-24 00:35:00,
2013-06-23 20:40:00,80.4,67.6,29.97,SSW,213,3.0,6.0,65,0.00,,,0.00,Wunderground v.1.15,2013-06-24 00:40:00,
2013-06-23 20:45:00,80.2,67.8,29.98,SW,225,1.0,11.0,66,0.00,,,0.00,Wunderground v.1.15,2013-06-24 00:45:00,
2013-06-23 20:50:00,80.0,67.6,29.99,SW,232,1.0,4.0,66,0.00,,,0.00,Wunderground v.1.15,2013-06-24 00:50:00,
2013-06-23 20:55:00,79.9,68.0,29.99,NNW,327,3.0,9.0,67,0.00,,,0.00,Wunderground v.1.15,2013-06-24 00:55:00,
2013-06-23 21:00:00,79.7,67.8,29.99,South,186,5.0,6.0,67,0.00,,,0.00,Wunderground v.1.15,2013-06-24 01:00:00,
2013-06-23 21:05:00,79.6,67.7,29.99,SW,223,2.0,10.0,67,0.00,,,0.00,Wunderground v.1.15,2013-06-24 01:05:00,
2013-06-23 21:10:00,79.4,67.9,29.99,WSW,244,3.0,3.0,68,0.00,,,0.00,Wunderground v.1.15,2013-06-24 01:10:00,
2013-06-23 21:15:00,79.4,67.9,30.00,SSW,192,3.0,6.0,68,0.00,,,0.00,Wunderground v.1.15,2013-06-24 01:15:00,
2013-06-23 21:20:00,79.2,67.7,30.00,WSW,250,0.0,3.0,68,0.00,,,0.00,Wunderground v.1.15,2013-06-24 01:20:00,
2013-06-23 21:25:00,79.1,67.6,30.00,South,180,3.0,7.0,68,0.00,,,0.00,Wunderground v.1.15,2013-06-24 01:25:00,
2013-06-23 21:30:00,78.9,67.9,30.00,South,182,4.0,5.0,69,0.00,,,0.00,Wunderground v.1.15,2013-06-24 01:30:00,
2013-06-23 21:35:00,78.8,67.8,30.00,SSE,159,2.0,9.0,69,0.00,,,0.00,Wunderground v.1.15,2013-06-24 01:35:00,
2013-06-23 21:40:00,78.7,67.7,30.00,WNW,290,4.0,5.0,69,0.00,,,0.00,Wunderground v.1.15,2013-06-24 01:40:00,
2013-06-23 21:45:00,78.7,67.7,30.00,WSW,254,9.0,11.0,69,0.00,,,0.00,Wunderground v.1.15,2013-06-24 01:45:00,
2013-06-23 21:50:00,78.6,68.0,30.00,West,271,0.0,5.0,70,0.00,,,0.00,Wunderground v.1.15,2013-06-24 01:50:00,
2013-06-23 21:55:00,78.5,67.9,30.00,SSW,209,3.0,10.0,70,0.00,,,0.00,Wunderground v.1.15,2013-06-24 01:55:00,
2013-06-23 22:00:00,78.4,67.8,30.00,SW,225,2.0,6.0,70,0.00,,,0.00,Wunderground v.1.15,2013-06-24 02:00:00,
2013-06-23 22:05:00,78.3,67.7,30.00,West,264,5.0,11.0,70,0.00,,,0.00,Wunderground v.1.15,2013-06-24 02:05:00,
2013-06-23 22:10:00,78.2,67.6,30.00,SSW,195,1.0,5.0,70,0.00,,,0.00,Wunderground v.1.15,2013-06-24 02:10:00,
2013-06-23 22:15:00,78.2,67.6,30.00,SSE,162,5.0,12.0,70,0.00,,,0.00,Wunderground v.1.15,2013-06-24 02:15:00,
2013-06-23 22:20:00,78.0,67.8,30.00,WSW,254,7.0,7.0,71,0.00,,,0.00,Wunderground v.1.15,2013-06-24 02:20:00,
2013-06-23 22:25:00,77.9,67.7,30.01,SW,230,0.0,8.0,71,0.00,,,0.00,Wunderground v.1.15,2013-06-24 02:25:00,
2013-06-23 22:30:00,77.8,67.6,30.00,South,191,2.0,3.0,71,0.00,,,0.00,Wunderground v.1.15,2013-06-24 02:30:00,
2013-06-23 22:35:00,77.7,68.0,30.00,SSW,194,0.0,5.0,72,0.00,,,0.00,Wunderground v.1.15,2013-06-24 02:35:00,
2013-06-23 22:40:00,77.6,67.9,30.00,WSW,250,1.0,9.0,72,0.00,,,0.00,Wunderground v.1.15,2013-06-24 02:40:00,
2013-06-23 22:45:00,77.5,67.8,30.00,West,277,8.0,9.0,72,0.00,,,0.00,Wunderground v.1.15,2013-06-24 02:45:00,
2013-06-23 22:50:00,77.4,67.7,30.00,SSW,199,12.0,12.0,72,0.00,,,0.00,Wunderground v.1.15,2013-06-24 02:50:00,
2013-06-23 22:55:00,77.3,67.6,30.00,WSW,249,6.0,12.0,72,0.00,,,0.00,Wunderground v.1.15,2013-06-24 02:55:00,
2013-06-23 23:00:00,77.2,67.9,29.99,WSW,257,3.0,4.0,73,0.00,,,0.00,Wunderground v.1.15,2013-06-24 03:00:00,
2013-06-23 23:05:00,77.1,67.8,29.99,SSW,194,6.0,8.0,73,0.00,,,0.00,Wunderground v.1.15,2013-06-24 03:05:00,
2013-06-23 23:10:00,77.0,67.7,29.99,WSW,244,8.0,8.0,73,0.00,,,0.00,Wunderground v.1.15,2013-06-24 03:10:00,
2013-06-23 23:15:00,76.9,67.6,29.99,WSW,245,0.0,9.0,73,0.00,,,0.00,Wunderground v.1.15,2013-06-24 03:15:00,
2013-06-23 23:20:00,76.9,67.6,29.99,SW,232,2.0,9.0,73,0.00,,,0.00,Wunderground v.1.15,2013-06-24 03:20:00,
2013-06-23 23:25:00,76.7,67.8,29.98,WSW,248,5.0,12.0,74,0.00,,,0.00,Wunderground v.1.15,2013-06-24 03:25:00,
2013-06-23 23:30:00,76.6,67.7,29.98,NNW,343,2.0,5.0,74,0.00,,,0.00,Wunderground v.1.15,2013-06-24 03:30:00,
2013-06-23 23:35:00,76.5,67.6,29.98,West,279,0.0,9.0,74,0.00,,,0.00,Wunderground v.1.15,2013-06-24 03:35:00,
2013-06-23 23:40:00,76.4,67.5,29.98,SW,236,1.0,7.0,74,0.00,,,0.00,Wunderground v.1.15,2013-06-24 03:40:00,
2013-06-23 23:45:00,76.4,67.5,29.98,SW,225,3.0,12.0,74,0.00,,,0.00,Wunderground v.1.15,2013-06-24 03:45:00,
2013-06-23 23:50:00,76.2,67.3,29.98,SW,232,2.0,5.0,74,0.00,,,0.00,Wunderground v.1.15,2013-06-24 03:50:00,
2013-06-23 23:55:00,76.2,67.3,29.98,South,172,2.0,9.0,74,0.00,,,0.00,Wunderground v.1.15,2013-06-24 03:55:00,